OPS 7613 (P/L 6)

Satellite information

Favourite Embed

Satellite Type and Status

PAYLOADIN ORBIT

Key statistics

Satellite OPS 7613 (P/L 6) at a glance.

Uptime

20307

Days in orbit

Revolutions

≈ 14.0

Per day

Orbit

LEO

Low Earth Orbit

Inclination

70.0

Latest

Satellite identification and parameters

Extended collection of information and parameters for OPS 7613 (P/L 6).

Object identification

Identified? True

Debris? False

Object name: OPS 7613 (P/L 6)

International designator: 1969-082G

Object number (NORAD): 4295

Object ID (CCSDS): 4295

Country: UNITED STATES OF AMERICA (US)

Current information (Y/N): Y

RCS size: MEDIUM

Orbital parameters

Period: 103.187 minutes

Inclination: 70.0122 deg

SMA: 7287.475 km

Apoapsis: 925.538 km

Periapsis: 893.141 km

RAAN: 261.3067 deg

Eccentricy: 0.0022228

Argument of periapsis: 313.9964 deg

Mean anomaly: 45.9308 deg

Mean motion: 13.95523593 rev/day

Mean motion (dot): 0.00000066 rev/day2

B* drag term: 0.000086995 1/REarth

Two-line elements (TLE)

Creation date: May 5, 2025, 2:11 a.m.

Reference frame: TEME

Reference center: EARTH

Epoch: May 4, 2025, 7:38 p.m. UTC

TLE line 0: 0 OPS 7613 (P/L 6)

TLE line 1: 1 04295U 69082G 25124.81856216 .00000066 00000-0 86995-4 0 9999

TLE line 2: 2 04295 70.0122 261.3067 0022228 313.9964 45.9308 13.95523593828518

Live tracking on map

Real-time ground track for satellite OPS 7613 (P/L 6).

In-orbit conjunctions

There are no conjunctions computed for OPS 7613 (P/L 6), at the moment. Check back to stay up to date, as we update our databases every day.

Go to all conjunctions

Associated space launch

Poppy was the follow-on ELINT system, which succeeded the Grab ELINT satellite system.

OPS 7613 (P/L 6) was lifted into orbit during the mission ‘Thorad SLV-2G Agena D | Poppy 8A,B,C,D’, on board a Thorad SLV-2G Agena D space rocket.

The launch took place on Sept. 30, 1969, 1:40 p.m. from Space Launch Complex 1W.

For more information about the launch, click the button.

Launch to space Thorad SLV-2G Agena D | Poppy 8A,B,C,D
Thorad SLV-2G Agena D | Poppy 8A,B,C,D

Agency: N/A

Status: Launch Successful

Launch date: Sept. 30, 1969, 1:40 p.m. UTC

Rocket: Thorad SLV-2G Agena D

Launch pad: Space Launch Complex 1W

Location: Vandenberg SFB, CA, USA

...

Latest news about this satellite

There are no fresh news available about this satellite. Check back as we update our databases every day.


Newsletter sign-up

Weekly statistics, charts and insights to help you stay on top of the space industry.